Cali, Colombia

7:30 AM COT on August 26, 2016 (GMT -0500)
Alfonso Bonilla Aragon International

Weather History for SKCL - November, 2012

Change the Weather History Date:

Tuesday, November 13, 2012

  Actual Average Record
Temperature  
Mean Temperature 76 °F -  
Max Temperature 86 °F 81 °F 90 °F (2015)
Min Temperature 66 °F 64 °F 64 °F (2003)
Cooling Degree Days 11    
Growing Degree Days 26 (Base 50)    
Moisture  
Dew Point 66 °F    
Average Humidity 76    
Maximum Humidity 94    
Minimum Humidity 48    
Precipitation  
Precipitation 0.00 in 0.11 in - ()
Sea Level Pressure  
Sea Level Pressure 29.94 in    
Wind  
Wind Speed 3 mph ()    
Max Wind Speed 16 mph    
Max Gust Speed -    
Visibility 5.8 miles    
Events Fog    
Averages and records for this station are not official NWS values.
T = Trace of Precipitation, MM = Missing Value Source: Averaged Metar Reports

Daily Weather History Graph

Daily Weather History Graph

Search for Another Location

Airport or City:

Trip Planner

Search our weather history database for the weather conditions in past years. The results will help you decide how hot, cold, wet, or windy it might be!

Date:

Astronomy

Nov. 13, 2012 Rise Set
Actual Time 5:50 AM COT 5:48 PM COT
Civil Twilight 5:29 AM COT 6:10 PM COT
Nautical Twilight 5:03 AM COT 6:35 PM COT
Astronomical Twilight 4:38 AM COT 7:01 PM COT
Moon 5:25 AM COT (11/13) 5:45 PM COT (11/13)
Length of Visible Light 12h 41m
Length of Day
11h 57m
Waning Crescent, 0% of the Moon is Illuminated
Nov 13
Waning Crescent
Nov 13
New
Nov 20
First Quarter
Nov 28
Full
Dec 6
Last Quarter

Hourly Weather History & Observations

Time (COT) Temp. Heat Index Dew Point Humidity Pressure Visibility Wind Dir Wind Speed Gust Speed Precip Events Conditions
12:00 AM 69.8 °F - 66.2 °F 88% 29.97 in 6.2 mi NNE 6.9 mph - N/A   Partly Cloudy
1:00 AM 68 °F - 66 °F 91%  in 6 mi Calm Calm - -   Haze
1:00 AM 68.0 °F - 66.2 °F 94% 29.96 in 5.6 mi Calm Calm - N/A   Partly Cloudy
2:00 AM 68.0 °F - 66.2 °F 94% 29.94 in 5.6 mi Calm Calm - N/A   Scattered Clouds
3:00 AM 68.0 °F - 66.2 °F 94% 29.92 in 5.6 mi East 4.6 mph - N/A   Partly Cloudy
4:00 AM 67 °F - 64 °F 88%  in 6 mi Calm Calm - -   Haze
4:00 AM 66.2 °F - 64.4 °F 94% 29.92 in 5.6 mi Calm Calm - N/A   Scattered Clouds
5:00 AM 68.0 °F - 66.2 °F 94% 29.95 in 5.6 mi Calm Calm - N/A   Scattered Clouds
5:25 AM 68.0 °F - 66.2 °F 94% 29.95 in 5.6 mi Calm Calm - N/A   Scattered Clouds
6:00 AM 66.2 °F - 64.4 °F 94% 29.95 in 5.6 mi Calm Calm - N/A   Mostly Cloudy
7:00 AM 68 °F - 66 °F 92%  in 6 mi Calm Calm - -   Haze
7:00 AM 68.0 °F - 66.2 °F 94% 29.90 in 6.2 mi Calm Calm - N/A   Mostly Cloudy
8:00 AM 69.8 °F - 66.2 °F 88% 30.02 in 5.0 mi ESE 3.5 mph - N/A Fog Fog
9:00 AM 75.2 °F - 68.0 °F 78% 30.02 in 5.0 mi South 3.5 mph - N/A   Scattered Clouds
10:00 AM 78 °F - 67 °F 62%  in 5 mi Calm Calm - -   Haze
10:00 AM 77.0 °F - 68.0 °F 74% 30.02 in 5.0 mi Calm Calm - N/A   Scattered Clouds
11:00 AM 78.8 °F - 66.2 °F 65% 29.99 in 5.6 mi Variable 2.3 mph - N/A   Scattered Clouds
12:00 PM 82.4 °F 84.6 °F 66.2 °F 58% 29.95 in 5.6 mi Variable 2.3 mph - N/A   Scattered Clouds
1:00 PM 84 °F - 67 °F 48%  in 6 mi Calm Calm - -   Haze
1:00 PM 84.2 °F 87.3 °F 68.0 °F 58% 29.92 in 6.2 mi Calm Calm - N/A   Scattered Clouds
2:00 PM 86.0 °F 88.2 °F 66.2 °F 51% - 6.2 mi NW 9.2 mph - N/A   Scattered Clouds
3:00 PM 84.2 °F 86.6 °F 66.2 °F 55% 29.84 in 6.2 mi NNW 11.5 mph - N/A   Scattered Clouds
4:00 PM 81 °F - 68 °F 55%  in 6 mi NNW 15.7 mph - -   Overcast
4:00 PM 80.6 °F 83.2 °F 68.0 °F 65% 29.83 in 6.2 mi NNW 16.1 mph - N/A   Mostly Cloudy
5:00 PM 78.8 °F - 66.2 °F 65% 29.84 in 6.2 mi NNW 11.5 mph - N/A   Mostly Cloudy
6:00 PM 77.0 °F - 68.0 °F 74% 29.86 in 6.2 mi NNW 6.9 mph - N/A   Mostly Cloudy
7:00 PM 76 °F - 64 °F 58%  in 6 mi North 13.4 mph - -   Haze
7:00 PM 75.2 °F - 64.4 °F 69% 29.89 in 6.2 mi North 13.8 mph - N/A   Scattered Clouds
8:00 PM 73.4 °F - 64.4 °F 73% 29.92 in 6.2 mi NNE 4.6 mph - N/A   Scattered Clouds
9:00 PM 73.4 °F - 64.4 °F 73% 29.96 in 6.2 mi North 6.9 mph - N/A   Scattered Clouds
10:00 PM 74 °F - 64 °F 63%  in 6 mi NE 6.7 mph - -   Haze
10:00 PM 73.4 °F - 64.4 °F 73% 29.98 in 6.2 mi NE 6.9 mph - N/A   Scattered Clouds
11:00 PM 71.6 °F - 66.2 °F 83% 29.98 in 6.2 mi NE 5.8 mph - N/A   Scattered Clouds